Location: Bazinghen
(50.8246°N, 1.6616°E)
Time: 11:03:06
(UTC+00:00)

Nadezhda 1 Rocket - Pass Details

Date: 09 April 2020
Orbit: 940 x 1006 km, 83.0° (Epoch: 22 May)

Event Time Altitude Azimuth Distance (km) Brightness Sun altitude
Rises 19:17:23 0° 176° (S) 3,721 6.8 -6.5°
Reaches altitude 10° 19:19:56 10° 173° (S) 2,772 6.1 -6.9°
Maximum altitude 19:26:12 64° 94° (E) 1,104 4.1 -7.8°
Drops below altitude 10° 19:32:27 10° 15° (NNE) 2,759 6.5 -8.7°
Sets 19:34:59 0° 12° (NNE) 3,702 7.2 -9.1°
